| time (UTC) | temp C | wind direction | speed KPH | gust KPH | rain 1hr cm | rain 24hr cm | rain mn cm | humidity % | barometer mb |
| 20260504202236 | 18 | 0.0 | 0.0 | 0.00 | 0.00 | 0.00 | 51 | 1008.0 | |
| 20260504201402 | 18 | 0.0 | 0.0 | 0.00 | 0.00 | 0.00 | 49 | 1007.0 | |
| 20260504200507 | 18 | 0.0 | 0.0 | 0.00 | 0.00 | 0.00 | 49 | 1007.0 | |
| 20260504195512 | 18 | 0.0 | 0.0 | 0.00 | 0.00 | 0.00 | 48 | 1007.0 | |
| 20260504194556 | 19 | 0.0 | 0.0 | 0.00 | 0.00 | 0.00 | 46 | 1007.0 | |
| 20260504193652 | 20 | 0.0 | 0.0 | 0.00 | 0.00 | 0.00 | 45 | 1007.0 | |
| 20260504192724 | 20 | 0.0 | 0.0 | 0.00 | 0.00 | 0.00 | 43 | 1007.0 | |
| 20260504191832 | 20 | 0.0 | 0.0 | 0.00 | 0.00 | 0.00 | 43 | 1007.0 | |
| 20260504190832 | 21 | 0.0 | 0.0 | 0.00 | 0.00 | 0.00 | 42 | 1007.0 | |
| 20260504190027 | 21 | 0.0 | 0.0 | 0.00 | 0.00 | 0.00 | 42 | 1007.0 | |
| 20260504185212 | 21 | 0.0 | 0.0 | 0.00 | 0.00 | 0.00 | 41 | 1007.0 | |
| 20260504184247 | 20 | 0.0 | 0.0 | 0.00 | 0.00 | 0.00 | 43 | 1007.0 | |
| 20260504183322 | 20 | 0.0 | 0.0 | 0.00 | 0.00 | 0.00 | 44 | 1007.0 | |
| 20260504182507 | 21 | 0.0 | 0.0 | 0.00 | 0.00 | 0.00 | 42 | 1007.0 | |
| 20260504181602 | 22 | 0.0 | 0.0 | 0.00 | 0.00 | 0.00 | 40 | 1006.0 | |
| 20260504180722 | 23 | 0.0 | 0.0 | 0.00 | 0.00 | 0.00 | 38 | 1006.0 | |
| 20260504175832 | 23 | 0.0 | 0.0 | 0.00 | 0.00 | 0.00 | 37 | 1006.0 | |
| 20260504174907 | 23 | 0.0 | 0.0 | 0.00 | 0.00 | 0.00 | 37 | 1006.0 | |
| 20260504173916 | 23 | 0.0 | 0.0 | 0.00 | 0.00 | 0.00 | 36 | 1006.0 | |
| 20260504172932 | 24 | 0.0 | 0.0 | 0.00 | 0.00 | 0.00 | 35 | 1006.0 | |
| 20260504172120 | 25 | 0.0 | 0.0 | 0.00 | 0.00 | 0.00 | 34 | 1006.0 | |
| 20260504171152 | 25 | 0.0 | 0.0 | 0.00 | 0.00 | 0.00 | 34 | 1006.0 | |
| 20260504170302 | 25 | 0.0 | 0.0 | 0.00 | 0.00 | 0.00 | 34 | 1006.0 | |
| 20260504150553 | 27 | 0.0 | 0.0 | 0.00 | 0.00 | 0.00 | 31 | 1007.0 | |
| 20260504140836 | 27 | 0.0 | 0.0 | 0.00 | 0.00 | 0.00 | 29 | 1007.0 | |
| 20260504130456 | 27 | 0.0 | 0.0 | 0.00 | 0.00 | 0.00 | 31 | 1008.0 | |
| 20260504100236 | 25 | 0.0 | 0.0 | 0.00 | 0.00 | 0.00 | 32 | 1009.0 | |
| 20260504081436 | 23 | 0.0 | 0.0 | 0.00 | 0.00 | 0.00 | 33 | 1009.0 | |
| 20260504080442 | 23 | 0.0 | 0.0 | 0.00 | 0.00 | 0.00 | 34 | 1009.0 | |
| 20260504050126 | 17 | 0.0 | 0.0 | 0.00 | 0.00 | 0.00 | 41 | 1009.0 | |
| 20260504045312 | 17 | 0.0 | 0.0 | 0.00 | 0.00 | 0.00 | 42 | 1009.0 | |
| 20260504044442 | 16 | 0.0 | 0.0 | 0.00 | 0.00 | 0.00 | 44 | 1009.0 | |
| 20260504043522 | 16 | 0.0 | 0.0 | 0.00 | 0.00 | 0.00 | 46 | 1009.0 | |
| 20260504042627 | 15 | 0.0 | 0.0 | 0.00 | 0.00 | 0.00 | 48 | 1009.0 | |
| 20260504041627 | 14 | 0.0 | 0.0 | 0.00 | 0.00 | 0.00 | 49 | 1009.0 | |
| 20260504040816 | 14 | 0.0 | 0.0 | 0.00 | 0.00 | 0.00 | 49 | 1009.0 | |
| 20260504035836 | 14 | 0.0 | 0.0 | 0.00 | 0.00 | 0.00 | 50 | 1009.0 | |
| 20260504034956 | 13 | 0.0 | 0.0 | 0.00 | 0.00 | 0.00 | 53 | 1009.0 | |
| 20260504033956 | 12 | 0.0 | 0.0 | 0.00 | 0.00 | 0.00 | 55 | 1009.0 | |
| 20260504033122 | 12 | 0.0 | 0.0 | 0.00 | 0.00 | 0.00 | 54 | 1009.0 | |
| 20260504032322 | 12 | 0.0 | 0.0 | 0.00 | 0.00 | 0.00 | 55 | 1009.0 | |
| 20260504031347 | 11 | 0.0 | 0.0 | 0.00 | 0.00 | 0.00 | 57 | 1009.0 | |
| 20260504030437 | 12 | 0.0 | 0.0 | 0.00 | 0.00 | 0.00 | 55 | 1009.0 | |
| 20260504025456 | 12 | 0.0 | 0.0 | 0.00 | 0.00 | 0.00 | 54 | 1009.0 | |
| 20260504024642 | 12 | 0.0 | 0.0 | 0.00 | 0.00 | 0.00 | 55 | 1009.0 | |
| 20260504023839 | 12 | 0.0 | 0.0 | 0.00 | 0.00 | 0.00 | 55 | 1009.0 | |
| 20260504022927 | 12 | 0.0 | 0.0 | 0.00 | 0.00 | 0.00 | 56 | 1009.0 | |
| 20260504021942 | 12 | 0.0 | 0.0 | 0.00 | 0.00 | 0.00 | 57 | 1009.0 | |
| 20260504021106 | 11 | 0.0 | 0.0 | 0.00 | 0.00 | 0.00 | 58 | 1009.0 | |
| 20260504020152 | 11 | 0.0 | 0.0 | 0.00 | 0.00 | 0.00 | 60 | 1009.0 | |
| 20260504015346 | 10 | 0.0 | 0.0 | 0.00 | 0.00 | 0.00 | 62 | 1009.0 | |
| 20260504014506 | 10 | 0.0 | 0.0 | 0.00 | 0.00 | 0.00 | 62 | 1009.0 | |
| 20260504013707 | 10 | 0.0 | 0.0 | 0.00 | 0.00 | 0.00 | 62 | 1009.0 | |
| 20260504012852 | 11 | 0.0 | 0.0 | 0.00 | 0.00 | 0.00 | 60 | 1009.0 | |
| 20260504011932 | 12 | 0.0 | 0.0 | 0.00 | 0.00 | 0.00 | 58 | 1010.0 | |
| 20260504010936 | 12 | 0.0 | 0.0 | 0.00 | 0.00 | 0.00 | 58 | 1010.0 | |
| 20260504010047 | 12 | 0.0 | 0.0 | 0.00 | 0.00 | 0.00 | 57 | 1009.0 | |
| 20260504005216 | 13 | 0.0 | 0.0 | 0.00 | 0.00 | 0.00 | 57 | 1009.0 | |
| 20260504004247 | 13 | 0.0 | 0.0 | 0.00 | 0.00 | 0.00 | 55 | 1009.0 | |
| 20260504003322 | 13 | 0.0 | 0.0 | 0.00 | 0.00 | 0.00 | 55 | 1009.0 | |
| 20260504002342 | 13 | 0.0 | 0.0 | 0.00 | 0.00 | 0.00 | 54 | 1009.0 | |
| 20260504001527 | 13 | 0.0 | 0.0 | 0.00 | 0.00 | 0.00 | 54 | 1009.0 | |
| 20260504000542 | 14 | 0.0 | 0.0 | 0.00 | 0.00 | 0.00 | 53 | 1010.0 | |
| 20260503235642 | 14 | 0.0 | 0.0 | 0.00 | 0.00 | 0.00 | 53 | 1010.0 | |
| 20260503234825 | 14 | 0.0 | 0.0 | 0.00 | 0.00 | 0.00 | 52 | 1010.0 | |
| 20260503234007 | 15 | 0.0 | 0.0 | 0.00 | 0.00 | 0.00 | 51 | 1010.0 | |
| 20260503233036 | 13 | 0.0 | 0.0 | 0.00 | 0.00 | 0.00 | 53 | 1010.0 | |
| 20260503232216 | 12 | 0.0 | 0.0 | 0.00 | 0.00 | 0.00 | 56 | 1010.0 | |
| 20260503231232 | 12 | 0.0 | 0.0 | 0.00 | 0.00 | 0.00 | 56 | 1010.0 | |
| 20260503230352 | 12 | 0.0 | 0.0 | 0.00 | 0.00 | 0.00 | 56 | 1010.0 | |
| 20260503225522 | 13 | 0.0 | 0.0 | 0.00 | 0.00 | 0.00 | 54 | 1010.0 | |
| 20260503224522 | 13 | 0.0 | 0.0 | 0.00 | 0.00 | 0.00 | 52 | 1010.0 | |
| 20260503223607 | 14 | 0.0 | 0.0 | 0.00 | 0.00 | 0.00 | 50 | 1010.0 | |
| 20260503222736 | 14 | 0.0 | 0.0 | 0.00 | 0.00 | 0.00 | 50 | 1010.0 | |
| 20260503221842 | 14 | 0.0 | 0.0 | 0.00 | 0.00 | 0.00 | 49 | 1010.0 | |
| 20260503220912 | 15 | 0.0 | 0.0 | 0.00 | 0.00 | 0.00 | 49 | 1010.0 | |
| 20260503220052 | 15 | 0.0 | 0.0 | 0.00 | 0.00 | 0.00 | 48 | 1010.0 | |
| 20260503215239 | 15 | 0.0 | 0.0 | 0.00 | 0.00 | 0.00 | 47 | 1010.0 | |
| 20260503214302 | 15 | 0.0 | 0.0 | 0.00 | 0.00 | 0.00 | 47 | 1010.0 | |
| 20260503213337 | 15 | 0.0 | 0.0 | 0.00 | 0.00 | 0.00 | 47 | 1010.0 | |
| 20260503212426 | 15 | 0.0 | 0.0 | 0.00 | 0.00 | 0.00 | 46 | 1010.0 | |
| 20260503211447 | 15 | 0.0 | 0.0 | 0.00 | 0.00 | 0.00 | 46 | 1010.0 | |
| 20260503210612 | 16 | 0.0 | 0.0 | 0.00 | 0.00 | 0.00 | 45 | 1010.0 | |
| 20260503205756 | 16 | 0.0 | 0.0 | 0.00 | 0.00 | 0.00 | 45 | 1010.0 | |
| 20260503204916 | 16 | 0.0 | 0.0 | 0.00 | 0.00 | 0.00 | 44 | 1010.0 | |
| 20260503203927 | 16 | 0.0 | 0.0 | 0.00 | 0.00 | 0.00 | 43 | 1010.0 | |
| 20260503202932 | 16 | 0.0 | 0.0 | 0.00 | 0.00 | 0.00 | 43 | 1010.0 |